Weather History for Key West NAF, FL

Change the Weather History Date:

Friday, March 1, 2013

  Actual Average Record
Temperature  
Mean Temperature 67 °F -  
Max Temperature 71 °F 76 °F 84 °F (1987)
Min Temperature 63 °F 66 °F 51 °F (1984)
Cooling Degree Days 2    
Growing Degree Days 17 (Base 50)    
Moisture  
Dew Point 58 °F    
Average Humidity 75    
Maximum Humidity 90    
Minimum Humidity 47    
Precipitation  
Precipitation 0.08 in - - ()
Sea Level Pressure  
Sea Level Pressure 29.96 in    
Wind  
Wind Speed 7 mph (NNE)    
Max Wind Speed 18 mph    
Max Gust Speed 22 mph    
Visibility 9 miles    
Events Rain    
Averages and records for this station are not official NWS values.
T = Trace of Precipitation, MM = Missing Value Source: NWS Daily Summary

Daily Weather History Graph

Daily Weather History Graph

Search for Another Location

Airport:

Trip Planner

Search our weather history database for the weather conditions in past years. The results will help you decide how hot, cold, wet, or windy it might be!

Date:

Astronomy

Mar. 01, 2013 Rise Set
Actual Time 6:49 AM EST 6:29 PM EST
Civil Twilight 6:26 AM EST 6:52 PM EST
Nautical Twilight 5:59 AM EST 7:18 PM EST
Astronomical Twilight 5:33 AM EST 7:45 PM EST
Moon 10:26 PM EST (3/1) 9:05 AM EST (3/1)
Length of Visible Light 12h 26m
Length of Day
11h 40m
Waning Gibbous, 83% of the Moon is Illuminated
Mar 1
Waning Gibbous
Mar 4
Last Quarter
Mar 11
New
Mar 19
First Quarter
Mar 27
Full

Hourly Weather History & Observations

Time (EST) Temp. Dew Point Humidity Pressure Visibility Wind Dir Wind Speed Gust Speed Precip Events Conditions
12:53 AM 68.0 °F 57.9 °F 70% 29.97 in 10.0 mi NNW 4.6 mph - N/A   Overcast
1:53 AM 66.9 °F 55.9 °F 68% 29.96 in 10.0 mi SE 3.5 mph - 0.00 in Rain Light Rain
2:53 AM 68.0 °F 57.9 °F 70% 29.95 in 10.0 mi Calm Calm - N/A   Overcast
3:53 AM 66.9 °F 60.1 °F 79% 29.93 in 10.0 mi Calm Calm - 0.00 in Rain Light Rain
4:53 AM 68.0 °F 57.9 °F 70% 29.92 in 10.0 mi ENE 4.6 mph - 0.00 in   Overcast
5:53 AM 68.0 °F 57.0 °F 68% 29.94 in 10.0 mi Calm Calm - N/A   Overcast
6:12 AM 68.0 °F 57.2 °F 68% 29.94 in 10.0 mi Calm Calm - N/A   Overcast
6:53 AM 68.0 °F 57.9 °F 70% 29.94 in 10.0 mi East 3.5 mph - N/A   Overcast
7:53 AM 69.1 °F 48.0 °F 47% 29.96 in 10.0 mi NNE 3.5 mph - N/A   Overcast
8:53 AM 70.0 °F 55.9 °F 61% 29.96 in 10.0 mi ENE 3.5 mph - N/A   Overcast
9:53 AM 70.0 °F 57.9 °F 65% 29.97 in 10.0 mi East 4.6 mph - N/A   Overcast
10:53 AM 71.1 °F 57.0 °F 61% 29.98 in 10.0 mi NNE 4.6 mph - N/A   Overcast
11:53 AM 71.1 °F 57.9 °F 63% 29.98 in 10.0 mi North 5.8 mph - N/A   Overcast
12:11 PM 69.8 °F 60.8 °F 73% 29.98 in 5.0 mi NNE 10.4 mph - 0.00 in Rain Light Rain
12:14 PM 66.2 °F 62.6 °F 88% 29.98 in 1.5 mi NNE 12.7 mph - 0.01 in Rain Light Rain
12:17 PM 66.2 °F 60.8 °F 83% 29.98 in 1.5 mi North 13.8 mph - 0.02 in Rain Light Rain
12:27 PM 64.4 °F 60.8 °F 88% 29.97 in 4.0 mi North 11.5 mph - 0.04 in Rain Light Rain
12:37 PM 64.4 °F 60.8 °F 88% 29.97 in 10.0 mi NNE 12.7 mph - 0.04 in   Overcast
12:41 PM 64.4 °F 60.8 °F 88% 29.97 in 5.0 mi NNE 11.5 mph - 0.04 in Rain Light Rain
12:53 PM 64.0 °F 61.0 °F 90% 29.96 in 7.0 mi NNE 10.4 mph - 0.04 in Rain Light Rain
12:59 PM 64.4 °F 60.8 °F 88% 29.97 in 10.0 mi North 11.5 mph - 0.00 in   Overcast
1:16 PM 64.4 °F 59.0 °F 83% 29.96 in 10.0 mi North 11.5 mph - 0.00 in   Overcast
1:53 PM 64.9 °F 57.9 °F 78% 29.95 in 10.0 mi North 11.5 mph - 0.00 in   Overcast
2:53 PM 64.9 °F 57.9 °F 78% 29.93 in 10.0 mi North 9.2 mph - N/A   Overcast
3:53 PM 66.0 °F 57.9 °F 75% 29.92 in 10.0 mi North 10.4 mph - N/A   Overcast
4:31 PM 64.4 °F 59.0 °F 83% 29.93 in 7.0 mi NNE 10.4 mph - 0.00 in Rain Light Rain
4:53 PM 63.0 °F 57.9 °F 84% 29.94 in 7.0 mi NE 6.9 mph - 0.02 in Rain Light Rain
5:23 PM 64.4 °F 59.0 °F 83% 29.94 in 10.0 mi North 11.5 mph - 0.00 in   Overcast
5:53 PM 64.9 °F 57.9 °F 78% 29.94 in 10.0 mi North 12.7 mph - 0.00 in   Overcast
6:53 PM 64.9 °F 57.0 °F 75% 29.96 in 10.0 mi North 11.5 mph - 0.00 in Rain Light Rain
6:57 PM 64.4 °F 57.2 °F 77% 29.96 in 10.0 mi North 11.5 mph - 0.00 in   Overcast
7:53 PM 66.0 °F 55.9 °F 70% 29.97 in 10.0 mi North 15.0 mph 21.9 mph 0.00 in   Overcast
8:53 PM 64.9 °F 55.0 °F 70% 30.00 in 10.0 mi North 12.7 mph - N/A   Overcast
9:53 PM 64.9 °F 53.1 °F 65% 30.01 in 10.0 mi North 11.5 mph - 0.00 in   Overcast
10:53 PM 63.0 °F 55.9 °F 78% 30.00 in 10.0 mi North 15.0 mph - 0.02 in   Overcast
11:53 PM 64.0 °F 54.0 °F 70% 29.99 in 10.0 mi North 18.4 mph 21.9 mph N/A   Overcast